CZ-4 DEB, 26142

Orbit data source: Space-Track

CZ-4 DEB, 26142 is space debris in SSO originally from a launch on Thu, 14 Oct 1999 UTC launched from the Taiyaun Space Center, China (TSC). Debris objects in space refer to the collection of defunct objects orbiting the Earth. Examples of debris include non-operational satellites, rocket bodies, and fragments generated from explosions, collisions, or faulty payload assembly.

Loading next visibility...
Identifier
26142, 1999-057AE
Orbit
SSO
Country
Flag of CNCN / PRC
Related business
Manufacturer
Unknown
Mission
Spacecraft
Bus & Motor
Unknown
Mass
Unknown
Launch date (UTC)
1999-10-14 (26 years ago)
Launch vehicle
Unknown
Launch site
Taiyaun Space Center, China (TSC)
Object type
Payload
Rocket body
Debris
Shape & HBR
Unknown shape, 0.1 m
Radar Cross Section
Small (<0.1 m²)

Expand to show TLE details & history
Last TLE update: 7 hours ago

TLE from 7 hours ago
0 CZ-4 DEB
1 26142U 99057AE  26036.65228764  .00000604  00000-0  38114-3 0  9992
2 26142  98.7473 286.5800 0297763 137.8635 281.0063 13.87715025306177
Epoch: 2026-02-05T15:39Z
TLE epoch observation values (Epoch: 2026-02-05T15:39:17.652Z)
Latitude
54.64015°
Longitude
-96.50133°
Altitude
910.335 km
Speed
7.42 km/s
True Right ascension
18h 16m 29s
True Declination
54° 28' 52"
Sunlit
Object was in daylight at epoch
Visualization orbit readout
Latitude
Unknown
Longitude
Unknown
Altitude
Unknown
Speed
Unknown
Apparent Right ascension
Unknown
Apparent Declination
Unknown
Sunlit
N/A
Visualization observer readout
Local Sidereal Time
00:58:15
Azimuth
Unknown
Elevation
Unknown
Doppler factor
Unknown
Orbital elements
Apogee altitude
1,151.573 km
Perigee altitude
716.125 km
Semi-major axis
7,311.986 km
Eccentricity
0.02978
Inclination
98.7473°
RAAN
286.58°
Arg. of periapsis
137.8635°
True anomaly
277.63493°
Mean anomaly
281.0063°
Eccentric anomaly
279.32278°
Mean motion
3.47128 °/min
Orbital period
103.71 mins
BSTAR
0.00038114
Loading maneuver chart data...
Computing Atmospheric mass density...
Loading historical data...
Loading historical data...
Loading historical data...
Loading historical data...
Loading historical data...
Loading historical data...
Loading historical data...

Documentation

Showing up to 5 results
|